Time,TemperatureF,DewpointF,PressureIn,WindDirection,WindDirectionDegrees,WindSpeedMPH,WindSpeedGustMPH,Humidity,HourlyPrecipIn,Conditions,Clouds,dailyrainin,SoftwareType,DateUTC
2013-08-02 00:02:00,69.0,58.0,29.97,WNW,293,0.0,1.0,68,0.00,,,0.03,,2013-08-02 04:02:00,
2013-08-02 00:33:00,67.0,58.0,29.96,WNW,299,0.0,0.0,72,0.00,,,0.03,,2013-08-02 04:33:00,
2013-08-02 00:43:00,67.0,58.0,29.96,WNW,299,0.0,0.0,72,0.00,,,0.03,,2013-08-02 04:43:00,
2013-08-02 00:53:00,68.0,58.0,29.97,WNW,299,1.0,1.0,70,0.00,,,0.03,,2013-08-02 04:53:00,
2013-08-02 01:02:00,68.0,58.0,29.96,WNW,293,0.0,0.0,70,0.00,,,0.03,,2013-08-02 05:02:00,
2013-08-02 01:12:00,68.0,58.0,29.96,WNW,293,0.0,0.0,70,0.00,,,0.03,,2013-08-02 05:12:00,
2013-08-02 01:22:00,68.0,58.0,29.96,WNW,289,1.0,2.0,71,0.00,,,0.03,,2013-08-02 05:22:00,
2013-08-02 01:32:00,68.0,58.0,29.97,WNW,299,0.0,1.0,71,0.00,,,0.03,,2013-08-02 05:32:00,
2013-08-02 01:43:00,68.0,58.0,29.97,WNW,299,0.0,1.0,71,0.00,,,0.03,,2013-08-02 05:43:00,
2013-08-02 01:53:00,67.0,58.0,29.97,WNW,299,0.0,0.0,73,0.00,,,0.03,,2013-08-02 05:53:00,
2013-08-02 02:02:00,67.0,58.0,29.97,NW,307,0.0,2.0,74,0.00,,,0.03,,2013-08-02 06:02:00,
2013-08-02 02:12:00,67.0,58.0,29.97,NW,307,0.0,2.0,74,0.00,,,0.03,,2013-08-02 06:12:00,
2013-08-02 02:22:00,67.0,59.0,29.96,NW,319,0.0,0.0,75,0.00,,,0.03,,2013-08-02 06:22:00,
2013-08-02 02:33:00,67.0,59.0,29.96,NW,310,1.0,2.0,76,0.00,,,0.03,,2013-08-02 06:33:00,
2013-08-02 02:43:00,67.0,59.0,29.96,NW,310,1.0,2.0,76,0.00,,,0.03,,2013-08-02 06:43:00,
2013-08-02 02:52:00,66.0,59.0,29.96,NW,309,0.0,1.0,77,0.00,,,0.03,,2013-08-02 06:52:00,
2013-08-02 03:02:00,66.0,59.0,29.96,WNW,292,0.0,0.0,78,0.00,,,0.03,,2013-08-02 07:02:00,
2013-08-02 03:12:00,66.0,59.0,29.96,WNW,292,0.0,0.0,78,0.00,,,0.03,,2013-08-02 07:12:00,
2013-08-02 03:22:00,66.0,59.0,29.96,WNW,292,1.0,2.0,79,0.00,,,0.03,,2013-08-02 07:22:00,
2013-08-02 03:33:00,65.0,59.0,29.96,WNW,301,1.0,3.0,80,0.00,,,0.03,,2013-08-02 07:33:00,
2013-08-02 03:44:00,65.0,59.0,29.96,WNW,301,1.0,3.0,80,0.00,,,0.03,,2013-08-02 07:44:00,
2013-08-02 03:53:00,65.0,59.0,29.96,NW,316,1.0,3.0,81,0.00,,,0.01,,2013-08-02 07:53:00,
2013-08-02 04:02:00,65.0,59.0,29.96,NW,319,0.0,2.0,82,0.00,,,0.01,,2013-08-02 08:02:00,
2013-08-02 04:12:00,65.0,59.0,29.96,NW,319,0.0,2.0,82,0.00,,,0.01,,2013-08-02 08:12:00,
2013-08-02 04:22:00,64.0,59.0,29.96,WNW,296,0.0,2.0,83,0.00,,,0.01,,2013-08-02 08:22:00,
2013-08-02 04:33:00,64.0,59.0,29.96,WNW,298,1.0,3.0,84,0.00,,,0.01,,2013-08-02 08:33:00,
2013-08-02 04:43:00,64.0,59.0,29.96,WNW,298,1.0,3.0,84,0.00,,,0.01,,2013-08-02 08:43:00,
2013-08-02 04:54:00,64.0,59.0,29.96,WNW,299,0.0,2.0,85,0.00,,,0.01,,2013-08-02 08:54:00,
2013-08-02 05:02:00,63.0,59.0,29.96,WNW,303,1.0,3.0,86,0.00,,,0.01,,2013-08-02 09:02:00,
2013-08-02 05:12:00,63.0,59.0,29.96,WNW,303,1.0,3.0,86,0.00,,,0.01,,2013-08-02 09:12:00,
2013-08-02 05:23:00,63.0,59.0,29.97,NNW,331,0.0,3.0,86,0.00,,,0.01,,2013-08-02 09:23:00,
2013-08-02 05:33:00,63.0,59.0,29.97,NNW,331,0.0,3.0,86,0.00,,,0.01,,2013-08-02 09:33:00,
2013-08-02 05:44:00,63.0,59.0,29.97,NW,312,0.0,2.0,87,0.00,,,0.01,,2013-08-02 09:44:00,
2013-08-02 05:53:00,62.0,58.0,29.97,NW,310,1.0,2.0,87,0.00,,,0.00,,2013-08-02 09:53:00,
2013-08-02 06:03:00,62.0,58.0,29.98,WNW,302,1.0,3.0,88,0.00,,,0.00,,2013-08-02 10:03:00,
2013-08-02 06:12:00,62.0,58.0,29.98,WNW,302,1.0,3.0,88,0.00,,,0.00,,2013-08-02 10:12:00,
2013-08-02 06:23:00,62.0,58.0,29.98,WNW,298,0.0,2.0,88,0.00,,,0.00,,2013-08-02 10:23:00,
2013-08-02 06:33:00,62.0,58.0,29.98,WNW,298,0.0,2.0,88,0.00,,,0.00,,2013-08-02 10:33:00,
2013-08-02 06:43:00,62.0,58.0,29.98,WNW,288,0.0,0.0,88,0.00,,,0.00,,2013-08-02 10:43:00,
2013-08-02 06:52:00,62.0,59.0,29.98,WNW,296,0.0,0.0,89,0.00,,,0.00,,2013-08-02 10:52:00,
2013-08-02 07:02:00,62.0,59.0,29.98,WNW,296,0.0,0.0,89,0.00,,,0.00,,2013-08-02 11:02:00,
2013-08-02 07:12:00,62.0,59.0,29.98,NW,305,0.0,0.0,89,0.00,,,0.00,,2013-08-02 11:12:00,
2013-08-02 07:23:00,62.0,59.0,29.98,NW,304,0.0,0.0,89,0.00,,,0.00,,2013-08-02 11:23:00,
2013-08-02 07:32:00,62.0,58.0,29.98,WNW,300,0.0,0.0,88,0.00,,,0.00,,2013-08-02 11:32:00,
2013-08-02 07:43:00,62.0,58.0,29.98,WNW,300,0.0,0.0,88,0.00,,,0.00,,2013-08-02 11:43:00,
2013-08-02 07:52:00,63.0,59.0,29.99,NW,309,0.0,0.0,86,0.00,,,0.00,,2013-08-02 11:52:00,
2013-08-02 08:02:00,63.0,59.0,29.99,NW,309,0.0,0.0,86,0.00,,,0.00,,2013-08-02 12:02:00,
2013-08-02 08:12:00,64.0,59.0,29.99,WNW,302,0.0,0.0,85,0.00,,,0.00,,2013-08-02 12:12:00,
2013-08-02 08:22:00,63.0,59.0,29.98,WNW,298,0.0,0.0,87,0.00,,,0.00,,2013-08-02 12:22:00,
2013-08-02 08:33:00,64.0,60.0,29.99,WNW,298,0.0,0.0,86,0.00,,,0.00,,2013-08-02 12:33:00,
2013-08-02 08:43:00,64.0,60.0,29.99,WNW,298,0.0,0.0,86,0.00,,,0.00,,2013-08-02 12:43:00,
2013-08-02 08:52:00,65.0,60.0,29.99,SSW,208,0.0,0.0,85,0.00,,,0.00,,2013-08-02 12:52:00,
2013-08-02 09:03:00,65.0,60.0,29.99,WNW,294,0.0,0.0,84,0.00,,,0.00,,2013-08-02 13:03:00,
2013-08-02 09:12:00,65.0,60.0,29.99,WNW,294,0.0,0.0,84,0.00,,,0.00,,2013-08-02 13:12:00,
2013-08-02 09:22:00,65.0,60.0,30.00,WNW,285,0.0,0.0,83,0.00,,,0.00,,2013-08-02 13:22:00,
2013-08-02 09:33:00,67.0,61.0,30.00,WNW,289,0.0,1.0,82,0.00,,,0.00,,2013-08-02 13:33:00,
2013-08-02 09:43:00,67.0,61.0,30.00,WNW,289,0.0,1.0,82,0.00,,,0.00,,2013-08-02 13:43:00,
2013-08-02 09:52:00,69.0,61.0,30.00,SSE,159,0.0,0.0,77,0.00,,,0.00,,2013-08-02 13:52:00,
2013-08-02 10:02:00,72.0,63.0,30.00,SSE,156,1.0,2.0,73,0.00,,,0.00,,2013-08-02 14:02:00,
2013-08-02 10:12:00,72.0,63.0,30.00,SSE,156,1.0,2.0,73,0.00,,,0.00,,2013-08-02 14:12:00,
2013-08-02 10:22:00,72.0,61.0,30.00,SE,135,2.0,4.0,68,0.00,,,0.00,,2013-08-02 14:22:00,
2013-08-02 10:32:00,72.0,62.0,30.00,SE,129,2.0,5.0,70,0.00,,,0.00,,2013-08-02 14:32:00,
2013-08-02 10:43:00,72.0,62.0,30.00,SE,129,2.0,5.0,70,0.00,,,0.00,,2013-08-02 14:43:00,
2013-08-02 10:53:00,73.0,62.0,30.00,South,173,2.0,7.0,68,0.00,,,0.00,,2013-08-02 14:53:00,
2013-08-02 11:03:00,74.0,61.0,30.00,SE,146,3.0,4.0,65,0.00,,,0.00,,2013-08-02 15:03:00,
2013-08-02 11:12:00,74.0,61.0,30.00,SE,146,3.0,4.0,65,0.00,,,0.00,,2013-08-02 15:12:00,
2013-08-02 11:22:00,74.0,61.0,30.00,SSE,153,3.0,6.0,63,0.00,,,0.00,,2013-08-02 15:22:00,
2013-08-02 11:32:00,74.0,61.0,30.00,SSE,153,3.0,6.0,63,0.00,,,0.00,,2013-08-02 15:32:00,
2013-08-02 11:43:00,74.0,61.0,30.00,SSE,153,3.0,6.0,63,0.00,,,0.00,,2013-08-02 15:43:00,
2013-08-02 11:53:00,76.0,62.0,30.00,SE,130,1.0,5.0,61,0.00,,,0.00,,2013-08-02 15:53:00,
2013-08-02 12:02:00,77.0,60.0,30.00,WSW,248,3.0,5.0,56,0.00,,,0.00,,2013-08-02 16:02:00,
2013-08-02 12:12:00,77.0,60.0,30.00,WSW,248,3.0,5.0,56,0.00,,,0.00,,2013-08-02 16:12:00,
2013-08-02 12:22:00,77.0,60.0,30.00,WSW,248,3.0,5.0,56,0.00,,,0.00,,2013-08-02 16:22:00,
2013-08-02 12:32:00,77.0,61.0,30.00,East,94,1.0,6.0,58,0.00,,,0.00,,2013-08-02 16:32:00,
2013-08-02 12:43:00,77.0,61.0,30.00,East,94,1.0,6.0,58,0.00,,,0.00,,2013-08-02 16:43:00,
2013-08-02 12:53:00,78.0,61.0,30.01,West,267,3.0,6.0,56,0.00,,,0.00,,2013-08-02 16:53:00,
2013-08-02 13:02:00,78.0,61.0,30.01,SSE,168,3.0,7.0,56,0.00,,,0.00,,2013-08-02 17:02:00,
2013-08-02 13:12:00,78.0,61.0,30.01,SSE,168,3.0,7.0,56,0.00,,,0.00,,2013-08-02 17:12:00,
2013-08-02 13:22:00,78.0,62.0,30.01,ESE,116,3.0,7.0,57,0.00,,,0.00,,2013-08-02 17:22:00,
2013-08-02 13:35:00,78.0,62.0,30.01,ESE,116,3.0,7.0,57,0.00,,,0.00,,2013-08-02 17:35:00,
2013-08-02 13:43:00,79.0,62.0,30.01,South,181,2.0,6.0,57,0.00,,,0.00,,2013-08-02 17:43:00,
2013-08-02 13:52:00,80.0,64.0,30.01,ESE,123,1.0,6.0,58,0.00,,,0.00,,2013-08-02 17:52:00,
2013-08-02 14:12:00,79.0,62.0,30.01,SSW,205,3.0,7.0,56,0.00,,,0.00,,2013-08-02 18:12:00,
2013-08-02 14:32:00,80.0,62.0,30.00,West,279,3.0,8.0,54,0.00,,,0.00,,2013-08-02 18:32:00,
2013-08-02 14:43:00,80.0,62.0,30.01,SSW,198,4.0,8.0,54,0.00,,,0.00,,2013-08-02 18:43:00,
2013-08-02 14:52:00,80.0,64.0,30.00,WSW,247,1.0,5.0,58,0.00,,,0.00,,2013-08-02 18:52:00,
2013-08-02 15:02:00,80.0,64.0,30.00,WSW,247,1.0,5.0,58,0.00,,,0.00,,2013-08-02 19:02:00,
2013-08-02 15:12:00,81.0,64.0,30.00,SSE,161,2.0,9.0,57,0.00,,,0.00,,2013-08-02 19:12:00,
2013-08-02 15:22:00,81.0,64.0,30.00,SE,143,2.0,14.0,56,0.00,,,0.00,,2013-08-02 19:22:00,
2013-08-02 15:32:00,81.0,63.0,29.99,SSE,156,3.0,8.0,55,0.00,,,0.00,,2013-08-02 19:32:00,
2013-08-02 15:43:00,81.0,63.0,29.99,SSE,156,3.0,8.0,55,0.00,,,0.00,,2013-08-02 19:43:00,
2013-08-02 15:52:00,82.0,63.0,29.99,SSE,160,3.0,8.0,52,0.00,,,0.00,,2013-08-02 19:52:00,
2013-08-02 16:02:00,82.0,63.0,29.99,SSE,160,3.0,8.0,52,0.00,,,0.00,,2013-08-02 20:02:00,
2013-08-02 16:12:00,82.0,63.0,29.99,West,267,4.0,8.0,52,0.00,,,0.00,,2013-08-02 20:12:00,
2013-08-02 16:22:00,83.0,64.0,29.98,SSE,157,2.0,9.0,53,0.00,,,0.00,,2013-08-02 20:22:00,
2013-08-02 16:32:00,83.0,64.0,29.98,NW,317,4.0,9.0,52,0.00,,,0.00,,2013-08-02 20:32:00,
2013-08-02 16:43:00,83.0,64.0,29.98,NW,317,4.0,9.0,52,0.00,,,0.00,,2013-08-02 20:43:00,
2013-08-02 16:52:00,83.0,64.0,29.98,SE,144,3.0,7.0,53,0.00,,,0.00,,2013-08-02 20:52:00,
2013-08-02 17:03:00,83.0,64.0,29.98,SE,144,3.0,7.0,53,0.00,,,0.00,,2013-08-02 21:03:00,
2013-08-02 17:12:00,83.0,64.0,29.98,SE,144,3.0,7.0,53,0.00,,,0.00,,2013-08-02 21:12:00,
2013-08-02 17:32:00,81.0,63.0,29.97,SW,216,5.0,10.0,55,0.00,,,0.00,,2013-08-02 21:32:00,
2013-08-02 17:43:00,81.0,65.0,29.96,NNW,340,2.0,9.0,59,0.00,,,0.00,,2013-08-02 21:43:00,
2013-08-02 17:53:00,80.0,65.0,29.96,WSW,251,3.0,11.0,60,0.00,,,0.00,,2013-08-02 21:53:00,
2013-08-02 18:02:00,79.0,64.0,29.96,WNW,290,3.0,8.0,61,0.00,,,0.00,,2013-08-02 22:02:00,
2013-08-02 18:12:00,79.0,64.0,29.96,WNW,290,3.0,8.0,61,0.00,,,0.00,,2013-08-02 22:12:00,
2013-08-02 18:22:00,79.0,64.0,29.96,WNW,290,3.0,8.0,61,0.00,,,0.00,,2013-08-02 22:22:00,
2013-08-02 18:32:00,79.0,64.0,29.96,WNW,290,3.0,8.0,61,0.00,,,0.00,,2013-08-02 22:32:00,
2013-08-02 18:43:00,78.0,65.0,29.96,SSW,199,2.0,7.0,65,0.00,,,0.00,,2013-08-02 22:43:00,
2013-08-02 18:52:00,78.0,65.0,29.96,West,274,2.0,6.0,65,0.00,,,0.00,,2013-08-02 22:52:00,
2013-08-02 19:02:00,77.0,65.0,29.96,SSE,160,1.0,7.0,66,0.00,,,0.00,,2013-08-02 23:02:00,
2013-08-02 19:12:00,77.0,65.0,29.96,SSE,160,1.0,7.0,66,0.00,,,0.00,,2013-08-02 23:12:00,
2013-08-02 19:22:00,77.0,66.0,29.96,WSW,240,2.0,5.0,68,0.00,,,0.00,,2013-08-02 23:22:00,
2013-08-02 19:32:00,77.0,65.0,29.95,SSE,154,1.0,5.0,67,0.00,,,0.00,,2013-08-02 23:32:00,
2013-08-02 19:43:00,77.0,65.0,29.95,SSE,154,1.0,5.0,67,0.00,,,0.00,,2013-08-02 23:43:00,
2013-08-02 19:53:00,77.0,65.0,29.95,SSE,154,1.0,7.0,66,0.00,,,0.00,,2013-08-02 23:53:00,
2013-08-02 20:02:00,77.0,65.0,29.95,SE,139,2.0,5.0,67,0.00,,,0.00,,2013-08-03 00:02:00,
2013-08-02 20:12:00,77.0,65.0,29.95,SE,139,2.0,5.0,67,0.00,,,0.00,,2013-08-03 00:12:00,
2013-08-02 20:22:00,77.0,66.0,29.95,South,170,2.0,5.0,68,0.00,,,0.00,,2013-08-03 00:22:00,
2013-08-02 20:33:00,76.0,65.0,29.95,SSW,212,2.0,5.0,69,0.00,,,0.00,,2013-08-03 00:33:00,
2013-08-02 20:43:00,76.0,65.0,29.95,SSW,212,2.0,5.0,69,0.00,,,0.00,,2013-08-03 00:43:00,
2013-08-02 20:52:00,76.0,65.0,29.96,SSW,195,1.0,2.0,70,0.00,,,0.00,,2013-08-03 00:52:00,
2013-08-02 21:03:00,76.0,65.0,29.96,SSE,166,0.0,5.0,70,0.00,,,0.00,,2013-08-03 01:03:00,
2013-08-02 21:12:00,76.0,65.0,29.96,SSE,166,0.0,5.0,70,0.00,,,0.00,,2013-08-03 01:12:00,
2013-08-02 21:22:00,76.0,66.0,29.96,SSW,199,0.0,3.0,71,0.00,,,0.00,,2013-08-03 01:22:00,
2013-08-02 21:32:00,76.0,66.0,29.96,SSE,152,1.0,5.0,71,0.00,,,0.00,,2013-08-03 01:32:00,
2013-08-02 21:42:00,76.0,66.0,29.96,SSE,152,1.0,5.0,71,0.00,,,0.00,,2013-08-03 01:42:00,
2013-08-02 21:53:00,76.0,66.0,29.96,SW,223,0.0,5.0,72,0.00,,,0.00,,2013-08-03 01:53:00,
2013-08-02 22:02:00,75.0,66.0,29.96,SSE,155,2.0,4.0,73,0.00,,,0.00,,2013-08-03 02:02:00,
2013-08-02 22:12:00,75.0,66.0,29.96,SSE,155,2.0,4.0,73,0.00,,,0.00,,2013-08-03 02:12:00,
2013-08-02 22:22:00,75.0,66.0,29.97,SSW,195,1.0,2.0,73,0.00,,,0.00,,2013-08-03 02:22:00,
2013-08-02 22:32:00,75.0,66.0,29.97,South,181,1.0,5.0,73,0.00,,,0.00,,2013-08-03 02:32:00,
2013-08-02 22:43:00,75.0,66.0,29.97,South,181,1.0,5.0,73,0.00,,,0.00,,2013-08-03 02:43:00,
2013-08-02 22:52:00,75.0,67.0,29.97,South,173,1.0,3.0,75,0.00,,,0.00,,2013-08-03 02:52:00,
2013-08-02 23:02:00,75.0,67.0,29.97,South,173,1.0,3.0,75,0.00,,,0.00,,2013-08-03 03:02:00,
2013-08-02 23:12:00,74.0,66.0,29.96,South,172,1.0,2.0,75,0.00,,,0.00,,2013-08-03 03:12:00,
2013-08-02 23:22:00,74.0,66.0,29.96,SSE,151,0.0,3.0,76,0.00,,,0.00,,2013-08-03 03:22:00,
2013-08-02 23:43:00,74.0,66.0,29.95,SSE,166,1.0,3.0,76,0.00,,,0.00,,2013-08-03 03:43:00,
2013-08-02 23:53:00,74.0,66.0,29.95,SSE,163,1.0,2.0,77,0.00,,,0.00,,2013-08-03 03:53:00,